Location: Partizánske
(48.6285°N, 18.3769°E)
Time: 00:24:35
(UTC+02:00)

A-11 Canister half - Visible Passes

Search period start: 25 June 2022 00:00
Search period end: 05 July 2022 00:00
Orbit: 1513 x 1687 km, 47.2° (Epoch: 24 June)

Date Brightness Start Highest point End Pass type
(mag) Time Alt. Az. Time Alt. Az. Time Alt. Az.
25 Jun 9.1 01:51:41 10° WSW 02:01:45 73° SSE 02:11:29 10° E visible
25 Jun 9.1 03:56:39 10° W 04:06:41 82° S 04:16:19 10° E visible
25 Jun 9.6 23:25:51 10° SSW 23:34:44 36° SE 23:43:28 10° ENE visible
26 Jun 9.0 01:28:45 10° WSW 01:38:48 71° SSE 01:48:34 10° E visible
26 Jun 9.1 03:33:41 10° W 03:43:43 83° S 03:53:25 10° E visible
26 Jun 9.6 23:03:07 10° SSW 23:11:52 35° SE 23:20:28 10° ENE visible
27 Jun 9.0 01:05:49 10° WSW 01:15:52 70° SSE 01:25:38 10° E visible
27 Jun 9.1 03:10:42 10° W 03:20:47 83° S 03:30:30 10° E visible
27 Jun 9.6 22:40:23 10° SSW 22:48:59 33° SE 22:57:29 10° ENE visible
28 Jun 9.1 00:42:53 10° WSW 00:52:55 68° SSE 01:02:42 10° ENE visible
28 Jun 9.1 02:47:42 10° W 02:57:49 84° S 03:07:34 10° E visible
28 Jun 9.7 22:17:41 10° SSW 22:26:08 31° SE 22:34:28 10° E visible
29 Jun 9.1 00:19:58 10° SW 00:29:59 66° SSE 00:39:46 10° ENE visible
29 Jun 9.1 02:24:44 10° W 02:34:52 84° S 02:44:39 10° E visible
29 Jun 9.7 21:55:01 10° S 22:03:15 29° SE 22:11:26 10° E visible
29 Jun 9.1 23:57:03 10° SW 00:07:03 64° SSE 00:16:50 10° ENE visible
30 Jun 9.1 02:01:44 10° W 02:11:54 84° S 02:21:43 10° E visible
30 Jun 9.1 04:06:53 10° WNW 04:16:43 65° SSW 04:26:12 10° SE visible
30 Jun 9.8 21:32:21 10° S 21:40:24 28° SE 21:48:24 10° E visible
30 Jun 9.1 23:34:09 10° SW 23:44:07 62° SSE 23:53:54 10° ENE visible
01 Jul 9.1 01:38:46 10° W 01:48:56 84° S 01:58:47 10° E visible
01 Jul 9.1 03:43:54 10° WNW 03:53:48 67° SSW 04:03:20 10° ESE visible
01 Jul 9.1 23:11:16 10° SW 23:21:12 61° SSE 23:30:58 10° ENE visible
02 Jul 9.1 01:15:47 10° W 01:25:59 83° S 01:35:52 10° E visible
02 Jul 9.1 03:20:56 10° W 03:30:53 69° SSW 03:40:28 10° ESE visible
02 Jul 9.1 22:48:23 10° SW 22:58:16 59° SSE 23:08:01 10° ENE visible
03 Jul 9.1 00:52:48 10° W 01:03:00 83° S 01:12:56 10° E visible
03 Jul 9.1 02:57:56 10° W 03:07:56 71° SSW 03:17:35 10° ESE visible
03 Jul 9.2 22:25:30 10° SW 22:35:20 57° SSE 22:45:04 10° ENE visible
04 Jul 9.1 00:29:50 10° W 00:40:03 83° S 00:50:00 10° E visible
04 Jul 9.0 02:34:58 10° W 02:45:01 72° SSW 02:54:42 10° ESE visible
04 Jul 9.2 22:02:38 10° SW 22:12:25 55° SSE 22:22:07 10° ENE visible
